Sturgeon Bay, WI

3:14 PM CDT on June 27, 2017 (GMT -0500)
Door County Cherryland

Weather History for KSUE - October, 2011

Change the Weather History Date:

Sunday, October 30, 2011

  Actual Average Record
Temperature  
Mean Temperature 42 °F -  
Max Temperature 48 °F 51 °F 74 °F (1933)
Min Temperature 37 °F 35 °F 12 °F (1925)
Degree Days  
Heating Degree Days 22    
Moisture  
Dew Point 37 °F    
Average Humidity 81    
Maximum Humidity 93    
Minimum Humidity 71    
Precipitation  
Precipitation 0.07 in - - ()
Sea Level Pressure  
Sea Level Pressure 30.02 in    
Wind  
Wind Speed 8 mph (SSE)    
Max Wind Speed 16 mph    
Max Gust Speed 28 mph    
Visibility 10 miles    
Events      
Averages and records for this station are not official NWS values.
T = Trace of Precipitation, MM = Missing Value Source: NWS Daily Summary

Daily Weather History Graph

Daily Weather History Graph

Search for Another Location

Airport or City:

Trip Planner

Search our weather history database for the weather conditions in past years. The results will help you decide how hot, cold, wet, or windy it might be!

Date:

Astronomy

Oct. 30, 2011 Rise Set
Actual Time 7:24 AM CDT 5:41 PM CDT
Civil Twilight 6:54 AM CDT 6:11 PM CDT
Nautical Twilight 6:19 AM CDT 6:46 PM CDT
Astronomical Twilight 5:45 AM CDT 7:20 PM CDT
Moon 11:51 AM CDT (10/30) 9:02 PM CDT (10/30)
Length of Visible Light 11h 17m
Length of Day
10h 16m
Waxing Crescent, 20% of the Moon is Illuminated
Oct 30
Waxing Crescent
Nov 2
First Quarter
Nov 10
Full
Nov 18
Last Quarter
Nov 25
New

Hourly Weather History & Observations

Time (CDT) Temp. Windchill Dew Point Humidity Pressure Visibility Wind Dir Wind Speed Gust Speed Precip Events Conditions
12:15 AM 37.4 °F 32.8 °F 33.8 °F 87% 30.08 in 10.0 mi South 5.8 mph - N/A   Clear
12:35 AM 37.4 °F 32.8 °F 33.8 °F 87% 30.08 in 10.0 mi South 5.8 mph - N/A   Clear
12:55 AM 37.4 °F 32.8 °F 33.8 °F 87% 30.09 in 10.0 mi South 5.8 mph - N/A   Clear
1:15 AM 37.4 °F 33.8 °F 33.8 °F 87% 30.09 in 10.0 mi South 4.6 mph - N/A   Clear
1:55 AM 37.4 °F 32.1 °F 33.8 °F 87% 30.08 in 10.0 mi South 6.9 mph - N/A   Clear
2:15 AM 37.4 °F 32.8 °F 33.8 °F 87% 30.08 in 10.0 mi South 5.8 mph - N/A   Clear
2:55 AM 37.4 °F 32.8 °F 32.0 °F 81% 30.08 in 10.0 mi South 5.8 mph - N/A   Clear
3:35 AM 37.4 °F 32.1 °F 32.0 °F 81% 30.08 in 10.0 mi South 6.9 mph - N/A   Clear
3:55 AM 37.4 °F 32.8 °F 32.0 °F 81% 30.07 in 10.0 mi South 5.8 mph - N/A   Clear
4:15 AM 37.4 °F 32.8 °F 30.2 °F 75% 30.07 in 10.0 mi South 5.8 mph - N/A   Clear
4:35 AM 37.4 °F 32.8 °F 30.2 °F 75% 30.07 in 10.0 mi South 5.8 mph - N/A   Clear
5:15 AM 37.4 °F 33.8 °F 30.2 °F 75% 30.07 in 10.0 mi South 4.6 mph - N/A   Clear
5:35 AM 37.4 °F 32.8 °F 30.2 °F 75% 30.07 in 10.0 mi South 5.8 mph - N/A   Clear
5:55 AM 37.4 °F 32.1 °F 32.0 °F 81% 30.07 in 10.0 mi South 6.9 mph - N/A   Clear
6:15 AM 37.4 °F 32.1 °F 32.0 °F 81% 30.07 in 10.0 mi South 6.9 mph - N/A   Clear
6:35 AM 39.2 °F 35.0 °F 33.8 °F 81% 30.06 in 10.0 mi South 5.8 mph - N/A   Clear
6:55 AM 39.2 °F 35.0 °F 33.8 °F 81% 30.06 in 10.0 mi South 5.8 mph - N/A   Clear
7:15 AM 39.2 °F 35.0 °F 33.8 °F 81% 30.06 in 10.0 mi South 5.8 mph - N/A   Clear
7:35 AM 39.2 °F 34.2 °F 35.6 °F 87% 30.07 in 10.0 mi South 6.9 mph - N/A   Clear
8:15 AM 42.8 °F 38.6 °F 37.4 °F 81% 30.07 in 10.0 mi SSE 6.9 mph - N/A   Mostly Cloudy
8:55 AM 44.6 °F 40.7 °F 37.4 °F 76% 30.07 in 10.0 mi SSE 6.9 mph - N/A   Mostly Cloudy
9:15 AM 44.6 °F 39.7 °F 37.4 °F 76% 30.07 in 10.0 mi SSE 9.2 mph - N/A   Mostly Cloudy
9:35 AM 46.4 °F 41.9 °F 37.4 °F 71% 30.06 in 10.0 mi SSE 9.2 mph - N/A   Mostly Cloudy
9:55 AM 46.4 °F 41.5 °F 37.4 °F 71% 30.06 in 10.0 mi SSE 10.4 mph - N/A   Overcast
10:15 AM 46.4 °F 41.1 °F 41.0 °F 81% 30.06 in 10.0 mi SE 11.5 mph 16.1 mph N/A   Overcast
10:35 AM 46.4 °F 41.1 °F 39.2 °F 76% 30.05 in 10.0 mi SSE 11.5 mph - N/A   Overcast
10:55 AM 46.4 °F 41.5 °F 39.2 °F 76% 30.05 in 10.0 mi SSE 10.4 mph 19.6 mph N/A   Overcast
11:15 AM 46.4 °F 40.1 °F 41.0 °F 81% 30.05 in 10.0 mi SSE 15.0 mph 20.7 mph N/A   Overcast
11:35 AM 46.4 °F 40.7 °F 39.2 °F 76% 30.05 in 10.0 mi SSE 12.7 mph - N/A   Overcast
11:55 AM 46.4 °F 41.1 °F 41.0 °F 81% 30.04 in 10.0 mi SE 11.5 mph 18.4 mph N/A   Mostly Cloudy
12:35 PM 46.4 °F 41.1 °F 39.2 °F 76% 30.02 in 10.0 mi SE 11.5 mph - N/A   Mostly Cloudy
12:55 PM 46.4 °F 41.5 °F 41.0 °F 81% 29.99 in 10.0 mi ESE 10.4 mph - N/A   Overcast
1:15 PM 48.2 °F - 42.8 °F 82% 29.99 in 10.0 mi SE 12.7 mph 20.7 mph N/A   Overcast
1:55 PM - - - N/A% 29.95 in 10.0 mi SE 16.1 mph 27.6 mph N/A   Scattered Clouds
2:15 PM - - - N/A% 29.95 in 10.0 mi SE 15.0 mph 23.0 mph N/A   Partly Cloudy
2:35 PM 46.4 °F 39.8 °F 37.4 °F 71% 29.95 in 10.0 mi SE 16.1 mph 21.9 mph N/A   Mostly Cloudy
2:55 PM - - - N/A% 29.94 in 10.0 mi SE 13.8 mph 20.7 mph N/A   Overcast
3:35 PM - - - N/A% 29.93 in 10.0 mi SE 12.7 mph 23.0 mph N/A   Overcast
3:55 PM - - - N/A% 29.91 in 10.0 mi SE 16.1 mph 23.0 mph N/A   Overcast
4:15 PM 46.4 °F 40.1 °F 37.4 °F 71% 29.93 in 10.0 mi SE 15.0 mph 20.7 mph 0.01 in   Overcast
4:35 PM 44.6 °F 37.8 °F 39.2 °F 81% 29.93 in 7.0 mi SSE 15.0 mph 20.7 mph 0.02 in   Overcast
4:55 PM 44.6 °F 38.1 °F 39.2 °F 81% 29.91 in 10.0 mi SSE 13.8 mph 20.7 mph 0.03 in   Overcast
5:15 PM 44.6 °F 38.1 °F 39.2 °F 81% 29.91 in 10.0 mi SE 13.8 mph 21.9 mph N/A   Overcast
5:35 PM 44.6 °F 37.4 °F 39.2 °F 81% 29.91 in 7.0 mi SE 16.1 mph 20.7 mph 0.01 in   Overcast
6:15 PM 44.6 °F 39.2 °F 42.8 °F 93% 29.92 in 9.0 mi SE 10.4 mph - 0.01 in   Mostly Cloudy
6:35 PM 44.6 °F 37.8 °F 42.8 °F 93% 29.91 in 9.0 mi SE 15.0 mph - 0.02 in   Overcast
6:55 PM 44.6 °F 38.4 °F 42.8 °F 93% 29.90 in 10.0 mi SE 12.7 mph 18.4 mph 0.03 in   Mostly Cloudy
7:15 PM 44.6 °F 38.1 °F 42.8 °F 93% 29.90 in 10.0 mi SE 13.8 mph 17.3 mph N/A   Overcast
7:35 PM 44.6 °F 37.4 °F 42.8 °F 93% 29.89 in 8.0 mi SE 16.1 mph 21.9 mph N/A   Overcast
7:55 PM 44.6 °F 38.1 °F 42.8 °F 93% 29.89 in 4.0 mi SE 13.8 mph 21.9 mph N/A   Overcast
8:15 PM 46.4 °F 40.7 °F 44.6 °F 93% 29.89 in 7.0 mi SSE 12.7 mph - N/A   Overcast
8:35 PM 46.4 °F 40.1 °F 42.8 °F 87% 29.88 in 9.0 mi South 15.0 mph 21.9 mph 0.01 in   Overcast
8:55 PM 46.4 °F 40.1 °F 42.8 °F 87% 29.88 in 10.0 mi South 15.0 mph 19.6 mph 0.01 in   Overcast
9:15 PM 46.4 °F 40.4 °F 42.8 °F 87% 29.89 in 10.0 mi SSE 13.8 mph - N/A   Overcast
9:35 PM 46.4 °F 40.7 °F 42.8 °F 87% 29.89 in 10.0 mi South 12.7 mph 16.1 mph N/A   Overcast
9:55 PM 46.4 °F 41.1 °F 42.8 °F 87% 29.89 in 10.0 mi SSE 11.5 mph - N/A   Overcast
10:15 PM 46.4 °F 42.4 °F 42.8 °F 87% 29.87 in 9.0 mi South 8.1 mph - N/A   Overcast
10:35 PM 44.6 °F 40.7 °F 42.8 °F 93% 29.88 in 8.0 mi South 6.9 mph - N/A   Overcast
10:55 PM 44.6 °F 39.7 °F 42.8 °F 93% 29.88 in 10.0 mi South 9.2 mph - N/A   Overcast
11:15 PM 44.6 °F 40.2 °F 42.8 °F 93% 29.88 in 10.0 mi South 8.1 mph - N/A   Overcast
11:55 PM 44.6 °F 40.2 °F 42.8 °F 93% 29.88 in 5.0 mi SSW 8.1 mph - N/A   Overcast